TimeEDT,TemperatureF,Dew PointF,Humidity,Sea Level PressureIn,VisibilityMPH,Wind Direction,Wind SpeedMPH,Gust SpeedMPH,PrecipitationIn,Events,Conditions,WindDirDegrees,DateUTC
12:54 AM,24.1,16.0,71,30.04,10.0,NW,5.8,-,N/A,,Partly Cloudy,320,2013-03-22 04:54:00
1:54 AM,23.0,16.0,74,30.04,10.0,NW,3.5,-,N/A,,Partly Cloudy,310,2013-03-22 05:54:00
2:54 AM,21.9,17.1,82,30.05,10.0,WSW,4.6,-,N/A,,Partly Cloudy,250,2013-03-22 06:54:00
3:54 AM,21.9,17.1,82,30.05,10.0,WSW,5.8,-,N/A,,Partly Cloudy,250,2013-03-22 07:54:00
4:54 AM,21.0,17.1,85,30.05,10.0,West,5.8,-,N/A,,Partly Cloudy,260,2013-03-22 08:54:00
5:54 AM,19.9,16.0,85,30.05,10.0,West,4.6,-,N/A,,Partly Cloudy,270,2013-03-22 09:54:00
6:54 AM,19.9,16.0,85,30.06,10.0,West,4.6,-,N/A,,Partly Cloudy,260,2013-03-22 10:54:00
7:54 AM,19.9,16.0,85,30.06,10.0,WSW,4.6,-,N/A,,Partly Cloudy,250,2013-03-22 11:54:00
8:54 AM,24.1,19.0,81,30.07,10.0,West,4.6,-,N/A,,Partly Cloudy,270,2013-03-22 12:54:00
9:54 AM,28.0,19.9,72,30.06,10.0,WNW,6.9,-,N/A,,Partly Cloudy,290,2013-03-22 13:54:00
10:54 AM,30.9,19.9,64,30.06,10.0,Variable,3.5,-,N/A,,Scattered Clouds,0,2013-03-22 14:54:00
11:54 AM,33.1,18.0,54,30.06,10.0,West,6.9,-,N/A,,Scattered Clouds,260,2013-03-22 15:54:00
12:54 PM,35.1,19.9,54,30.06,10.0,West,9.2,-,N/A,,Scattered Clouds,270,2013-03-22 16:54:00
1:54 PM,37.0,19.9,50,30.05,10.0,West,11.5,16.1,N/A,,Partly Cloudy,270,2013-03-22 17:54:00
2:54 PM,39.0,19.9,46,30.04,10.0,WSW,10.4,-,N/A,,Partly Cloudy,250,2013-03-22 18:54:00
3:54 PM,39.9,19.9,45,30.02,10.0,West,10.4,-,N/A,,Partly Cloudy,280,2013-03-22 19:54:00
4:54 PM,41.0,19.9,43,30.01,10.0,West,12.7,-,N/A,,Scattered Clouds,280,2013-03-22 20:54:00
5:54 PM,41.0,19.9,43,30.01,10.0,WNW,6.9,-,N/A,,Partly Cloudy,290,2013-03-22 21:54:00
6:54 PM,39.9,19.9,45,30.02,10.0,West,11.5,-,N/A,,Partly Cloudy,260,2013-03-22 22:54:00
7:54 PM,36.0,21.0,55,30.04,10.0,WSW,8.1,-,N/A,,Partly Cloudy,250,2013-03-22 23:54:00
8:54 PM,33.1,21.9,64,30.05,10.0,WSW,4.6,-,N/A,,Partly Cloudy,250,2013-03-23 00:54:00
9:54 PM,32.0,19.9,61,30.05,10.0,NW,6.9,-,N/A,,Scattered Clouds,320,2013-03-23 01:54:00
10:54 PM,28.9,19.0,67,30.06,10.0,North,4.6,-,N/A,,Scattered Clouds,350,2013-03-23 02:54:00
11:54 PM,30.0,18.0,61,30.08,10.0,NW,3.5,-,N/A,,Mostly Cloudy,320,2013-03-23 03:54:00